This is the latest recevied weather packets stored in our database for station/object IZ4UFQ-10. If no packets are shown the sender has not sent any weather packets the latest 1 day(s).
| Time | Temp. | Humidity | Pressure | Rain* | Wind** | Luminosity | Snow |
|---|---|---|---|---|---|---|---|
| 1778036536 | 14.44° C | 95% | 1010 hPa | 2.54 mm | - | 0 W/m² | - |
| 1778036235 | 14.44° C | 95% | 1010.2 hPa | 2.29 mm | - | 0 W/m² | - |
| 1778035935 | 14.44° C | 95% | 1010.3 hPa | 2.03 mm | - | 0 W/m² | - |
| 1778035635 | 14.44° C | 95% | 1010.2 hPa | 2.03 mm | - | 0 W/m² | - |
| 1778035034 | 14.44° C | 94% | 1010.3 hPa | 2.29 mm | - | 0 W/m² | - |
| 1778034734 | 14.44° C | 95% | 1010.4 hPa | 2.79 mm | - | 0 W/m² | - |
| 1778034434 | 14.44° C | 95% | 1010.4 hPa | 3.05 mm | - | 0 W/m² | - |
| 1778034133 | 14.44° C | 94% | 1010.6 hPa | 3.3 mm | - | 0 W/m² | - |
| 1778033833 | 15° C | 94% | 1010.8 hPa | 3.81 mm | - | 0 W/m² | - |
| 1778033533 | 15° C | 94% | 1010.9 hPa | 4.06 mm | - | 0 W/m² | - |
| 1778033232 | 15° C | 94% | 1011.1 hPa | 4.57 mm | - | 0 W/m² | - |
| 1778032632 | 15° C | 94% | 1010.8 hPa | 6.1 mm | - | 0 W/m² | - |
| 1778032332 | 15° C | 94% | 1010.8 hPa | 6.35 mm | - | 0 W/m² | - |
| 1778032031 | 15° C | 94% | 1010.6 hPa | 6.86 mm | - | 0 W/m² | - |
| 1778031731 | 15° C | 94% | 1011 hPa | 6.86 mm | - | 0 W/m² | - |
| 1778031431 | 15° C | 94% | 1011.3 hPa | 6.86 mm | - | 0 W/m² | - |
| 1778030830 | 15° C | 94% | 1011.3 hPa | 6.6 mm | - | 0 W/m² | - |
| 1778030530 | 15° C | 94% | 1011.3 hPa | 6.35 mm | - | 0 W/m² | - |
| 1778030230 | 15° C | 94% | 1011.4 hPa | 5.59 mm | - | 0 W/m² | - |
| 1778029329 | 15° C | 93% | 1011.7 hPa | 4.06 mm | - | 0 W/m² | - |
| 1778029029 | 15° C | 93% | 1011.6 hPa | 3.3 mm | - | 0 W/m² | - |
| 1778028428 | 15° C | 93% | 1011.5 hPa | 2.03 mm | - | 0 W/m² | - |
| 1778028128 | 15° C | 93% | 1011.3 hPa | 1.52 mm | - | 0 W/m² | - |
| 1778027227 | 15° C | 93% | 1011 hPa | 0.25 mm | - | 0 W/m² | - |
| 1778026927 | 15° C | 93% | 1011 hPa | 0.25 mm | - | 0 W/m² | - |
* Rain latest hour (hover to see other rain measurements)
** Current wind speed in m/s (hover to see current wind gust speed)